Location: Anaheim
(33.8350°N, 117.9140°W)
Time: 23:42:30
(UTC-08:00)

ISS - Visible Passes

Search period start: 09 December 2018 00:00
Search period end: 19 December 2018 00:00
Orbit: 401 x 408 km, 51.6° (Epoch: 10 December)

Date Brightness Start Highest point End Pass type
(mag) Time Alt. Az. Time Alt. Az. Time Alt. Az.
09 Dec -0.8 18:41:59 10° NNW 18:42:01 10° NNW 18:42:01 10° NNW visible
10 Dec -2.3 17:50:10 10° NNW 17:52:32 21° NNE 17:52:32 21° NNE visible
11 Dec -2.6 18:33:51 10° NW 18:36:03 39° WNW 18:36:03 39° WNW visible
12 Dec -3.7 17:41:41 10° NW 17:44:52 49° NE 17:47:16 16° ESE visible
12 Dec -0.2 19:19:57 10° WSW 19:20:02 10° WSW 19:20:02 10° WSW visible
13 Dec -1.4 18:26:15 10° WNW 18:28:55 23° SW 18:31:35 10° S visible
14 Dec -3.0 17:33:36 10° NW 17:36:46 53° SW 17:39:57 10° SSE visible
16 Dec -0.6 17:26:11 10° W 17:28:30 18° SW 17:30:48 10° S visible
